Home   Weather   Christchurch   Past weeks
Flag for New Zealand

Past Weather in Christchurch, New Zealand — August 2017

Now
55 °F

Cool.


Feels Like: 52 °F
Forecast: 66 / 57 °F
Wind: 12 mph from Northeast

Location: Christchurch Airport

Current Time: Feb 23, 2020 at 10:16:52 pm

Latest Report: Feb 23, 2020 at 9:30 pm


Visibility: N/A

Pressure: 30.21 "Hg

Humidity: 82%

Dew Point: 50 °F

Location of ChristchurchLocation

August 2017 Weather in Christchurch — Graph

°F

High & Low Weather Summary for August 2017

 TemperatureHumidityPressure
High68 °F (Aug 7, 2:00 pm)100% (Aug 2, 10:00 pm)30.36 "Hg (Aug 2, 10:00 pm)
Low27 °F (Aug 22, 5:30 am)30% (Aug 7, 2:00 pm)29.21 "Hg (Aug 17, 7:30 am)
Average47 °F81%29.83 "Hg
* Reported Aug 1 12:00 am — Aug 31 11:30 pm, Christchurch. Weather by CustomWeather, © 2020

Note: Actual official high and low records may vary slightly from our data, if they occured in-between our weather recording intervals... More about our weather records

Christchurch Weather History for August 1, 2017

Scroll right to see more
 ConditionsComfort  
Time TempWeatherWind HumidityBarometerVisibility
12:00 am
Tue, Aug 1
45 °FQuite cool.6 mph81%30.01 "HgN/A
12:30 am45 °FQuite cool.5 mph81%30.01 "HgN/A
1:00 am46 °FCool.2 mph76%30.01 "HgN/A
1:30 am41 °FQuite cool.6 mph81%30.01 "HgN/A
2:00 am43 °FQuite cool.8 mph81%30.04 "HgN/A
2:30 am43 °FQuite cool.3 mph81%30.04 "HgN/A
3:00 am41 °FQuite cool.7 mph81%30.04 "HgN/A
3:30 am45 °FQuite cool.7 mph76%30.07 "HgN/A
4:00 am45 °FQuite cool.9 mph81%30.07 "HgN/A
4:30 am45 °FQuite cool.10 mph81%30.07 "HgN/A
5:00 am45 °FPassing clouds.12 mph81%30.09 "HgN/A
5:30 am46 °FOvercast.10 mph76%30.09 "HgN/A
6:00 am46 °FOvercast.12 mph82%30.12 "HgN/A
6:30 am46 °FOvercast.12 mph82%30.12 "HgN/A
7:00 am46 °FOvercast.8 mph82%30.12 "HgN/A
7:30 am45 °FOvercast.7 mph87%30.15 "HgN/A
8:00 am46 °FPartly sunny.6 mph76%30.15 "HgN/A
8:30 am45 °FPartly sunny.5 mph81%30.18 "HgN/A
9:00 am45 °FBroken clouds.5 mph87%30.18 "HgN/A
9:30 am48 °FScattered clouds.6 mph82%30.18 "HgN/A
10:00 am52 °FScattered clouds.3 mph72%30.18 "HgN/A
10:30 am54 °FPartly sunny.7 mph67%30.18 "HgN/A
11:00 am52 °FOvercast.8 mph72%30.21 "HgN/A
11:30 am52 °FPartly sunny.5 mph77%30.21 "HgN/A
12:00 pm52 °FOvercast.5 mph77%30.18 "HgN/A
12:30 pm52 °FCloudy.6 mph77%30.18 "HgN/A
1:00 pm54 °FPartly sunny.5 mph67%30.18 "HgN/A
1:30 pm54 °FPartly sunny.7 mph72%30.18 "HgN/A
2:00 pm54 °FCloudy.3 mph67%30.15 "HgN/A
2:30 pm54 °FBroken clouds.6 mph67%30.15 "HgN/A
3:00 pm54 °FScattered clouds.8 mph63%30.15 "HgN/A
3:30 pm54 °FPartly sunny.9 mph67%30.15 "HgN/A
4:00 pm54 °FBroken clouds.6 mph67%30.15 "HgN/A
4:30 pm52 °FPartly sunny.7 mph72%30.15 "HgN/A
5:00 pm50 °FLight rain. Broken clouds.7 mph76%30.18 "HgN/A
5:30 pm50 °FOvercast.8 mph82%30.18 "HgN/A
6:00 pm48 °FPassing clouds.8 mph87%30.18 "HgN/A
6:30 pm48 °FOvercast.8 mph87%30.18 "HgN/A
7:00 pm46 °FOvercast.8 mph93%30.21 "HgN/A
7:30 pm46 °FMostly cloudy.7 mph93%30.21 "HgN/A
8:00 pm46 °FLow clouds.8 mph93%30.21 "HgN/A
8:30 pm46 °FPassing clouds.9 mph93%30.21 "HgN/A
9:00 pm46 °FMostly cloudy.9 mph87%30.21 "HgN/A
9:30 pm46 °FOvercast.8 mph87%30.21 "HgN/A
10:00 pm46 °FPassing clouds.8 mph87%30.21 "HgN/A
10:30 pm45 °FPassing clouds.8 mph93%30.21 "HgN/A
11:00 pm45 °FPassing clouds.7 mph93%30.24 "HgN/A
11:30 pm45 °FPassing clouds.3 mph93%30.24 "HgN/A
Weather by CustomWeather, © 2020

See weather overview

Advertising